Pontiac, MI

11:24 PM EDT on May 25, 2018 (GMT -0400)
Oakland County International

Weather History for KPTK - January, 2013

Change the Weather History Date:

Monday, January 14, 2013

  Actual Average Record
Temperature  
Mean Temperature 24 °F -  
Max Temperature 28 °F 26 °F 39 °F (2002)
Min Temperature 18 °F 13 °F -8 °F (2009)
Degree Days  
Heating Degree Days 42    
Moisture  
Dew Point 16 °F    
Average Humidity 75    
Maximum Humidity 86    
Minimum Humidity 63    
Precipitation  
Precipitation 0.00 in - - ()
Sea Level Pressure  
Sea Level Pressure 30.30 in    
Wind  
Wind Speed 16 mph (West)    
Max Wind Speed 24 mph    
Max Gust Speed 32 mph    
Visibility 10 miles    
Events Snow    
Averages and records for this station are not official NWS values.
T = Trace of Precipitation, MM = Missing Value Source: NWS Daily Summary

Daily Weather History Graph

Daily Weather History Graph

Search for Another Location

Airport or City:

Astronomy

Jan. 14, 2013 Rise Set
Actual Time 8:01 AM EST 5:24 PM EST
Civil Twilight 7:30 AM EST 5:55 PM EST
Nautical Twilight 6:55 AM EST 6:30 PM EST
Astronomical Twilight 6:21 AM EST 7:04 PM EST
Moon 9:29 AM EST (1/14) 9:15 PM EST (1/14)
Length of Visible Light 10h 25m
Length of Day
9h 23m
Waxing Crescent, 11% of the Moon is Illuminated
Jan 14
Waxing Crescent
Jan 18
First Quarter
Jan 26
Full
Feb 3
Last Quarter
Feb 10
New

Hourly Weather History & Observations

Time (EST) Temp. Windchill Dew Point Humidity Pressure Visibility Wind Dir Wind Speed Gust Speed Precip Events Conditions
12:06 AM 28.4 °F 15.1 °F 24.8 °F 86% 30.00 in 9.0 mi West 20.7 mph 27.6 mph N/A   Overcast
12:24 AM 28.4 °F 14.1 °F 23.0 °F 80% 30.01 in 10.0 mi West 24.2 mph 32.2 mph N/A   Overcast
12:53 AM 26.6 °F 12.7 °F 21.2 °F 80% 30.02 in 10.0 mi West 20.7 mph 27.6 mph N/A   Overcast
1:53 AM 26.1 °F 11.3 °F 19.9 °F 78% 30.09 in 10.0 mi West 23.0 mph 28.8 mph N/A   Overcast
2:53 AM 25.0 °F 11.3 °F 19.9 °F 81% 30.13 in 10.0 mi West 18.4 mph 25.3 mph N/A   Overcast
3:53 AM 25.0 °F 10.6 °F 19.0 °F 78% 30.17 in 10.0 mi West 20.7 mph 29.9 mph N/A   Overcast
4:53 AM 24.1 °F 8.7 °F 18.0 °F 77% 30.19 in 10.0 mi West 23.0 mph - N/A   Overcast
5:46 AM 24.8 °F 11.5 °F 19.4 °F 80% 30.18 in 10.0 mi WNW 17.3 mph - N/A   Overcast
5:53 AM 24.1 °F 9.0 °F 19.0 °F 81% 30.22 in 10.0 mi West 21.9 mph 27.6 mph N/A   Overcast
6:01 AM 23.0 °F 8.3 °F 17.6 °F 80% 30.19 in 10.0 mi WNW 19.6 mph 27.6 mph N/A   Overcast
6:53 AM 23.0 °F 9.6 °F 17.1 °F 78% 30.27 in 10.0 mi West 16.1 mph - N/A   Overcast
7:53 AM 21.9 °F 8.7 °F 16.0 °F 78% 30.30 in 10.0 mi WNW 15.0 mph 25.3 mph N/A   Overcast
8:53 AM 21.0 °F 6.6 °F 14.0 °F 74% 30.35 in 10.0 mi WNW 17.3 mph 26.5 mph N/A   Overcast
9:53 AM 19.9 °F 4.8 °F 12.0 °F 71% 30.36 in 10.0 mi WNW 18.4 mph 25.3 mph N/A   Mostly Cloudy
10:53 AM 21.0 °F 7.6 °F 12.9 °F 71% 30.39 in 10.0 mi West 15.0 mph - N/A   Mostly Cloudy
11:53 AM 21.9 °F 11.0 °F 12.9 °F 68% 30.38 in 10.0 mi West 10.4 mph - 0.00 in Snow Light Snow
12:53 PM 21.9 °F 11.7 °F 14.0 °F 72% 30.35 in 10.0 mi WNW 9.2 mph - 0.00 in   Mostly Cloudy
1:53 PM 23.0 °F 13.9 °F 14.0 °F 68% 30.31 in 10.0 mi West 8.1 mph - N/A   Mostly Cloudy
2:35 PM 23.0 °F 14.7 °F 12.2 °F 63% 30.33 in 10.0 mi WNW 6.9 mph - N/A   Partly Cloudy
2:53 PM 24.1 °F 17.0 °F 14.0 °F 65% 30.38 in 10.0 mi West 5.8 mph - N/A   Scattered Clouds
3:53 PM 24.1 °F 16.0 °F 14.0 °F 65% 30.40 in 10.0 mi WSW 6.9 mph - N/A   Overcast
4:53 PM 23.0 °F 14.7 °F 14.0 °F 68% 30.42 in 10.0 mi West 6.9 mph - N/A   Overcast
5:04 PM 23.0 °F 13.9 °F 14.0 °F 68% 30.38 in 10.0 mi West 8.1 mph - N/A   Overcast
5:46 PM 23.0 °F 13.1 °F 14.0 °F 68% 30.38 in 10.0 mi West 9.2 mph - N/A   Overcast
5:53 PM 23.0 °F 13.9 °F 14.0 °F 68% 30.43 in 10.0 mi West 8.1 mph - N/A   Overcast
6:42 PM 21.2 °F 13.6 °F 14.0 °F 74% 30.38 in 10.0 mi WSW 5.8 mph - N/A   Overcast
6:53 PM 21.9 °F 14.5 °F 14.0 °F 72% 30.43 in 10.0 mi WSW 5.8 mph - N/A   Overcast
7:21 PM 21.2 °F 14.9 °F 14.0 °F 74% 30.37 in 10.0 mi SW 4.6 mph - N/A   Overcast
7:53 PM 21.0 °F - 14.0 °F 74% 30.41 in 10.0 mi Calm Calm - N/A   Mostly Cloudy
8:53 PM 19.9 °F 13.4 °F 14.0 °F 78% 30.40 in 10.0 mi WNW 4.6 mph - N/A   Scattered Clouds
9:53 PM 19.0 °F 11.1 °F 14.0 °F 81% 30.40 in 10.0 mi WNW 5.8 mph - N/A   Scattered Clouds
10:53 PM 19.0 °F - 14.0 °F 81% 30.39 in 10.0 mi Calm Calm - N/A   Scattered Clouds
11:53 PM 18.0 °F 11.1 °F 14.0 °F 84% 30.40 in 10.0 mi WNW 4.6 mph - N/A   Partly Cloudy